Weather Roundup
Issued by NWS

Home | Current Version | Previous Version | Text Only | Print | Product List | Glossary On
Versions: 1 2 3 4 5 6 7 8 9 10 11 12 13 14 15 16 17 18 19 20 21 22 23 24 25 26 27 28 29 30 31 32 33 34 35 36 37 38 39 40 41 42 43 44 45 46 47 48 49 50
000
NZUS93 KARX 211610
HRRWXR

CURRENT HOURLY OBSERVATIONS ACROSS
MUCH OF THE UPPER MISSISSIPPI VALLEY
NATIONAL WEATHER SERVICE LA CROSSE WI
1000 AM CST WED FEB 21 2018


...SOUTHEAST MINNESOTA...


CITY           SKY/WX    TMP DP  RH WIND       PRES   REMARKS
ROCHESTER      FAIR      10   6  84 W3        30.58R
ROCHESTER/MAYO FAIR      12   4  70 W3        30.60R
WINONA         FAIR      14   9  79 CALM      30.62R
AUSTIN         FAIR      12   3  67 CALM      30.59R
ALBERT LEA     FAIR      10   1  67 CALM      30.60R
DODGE CENTER   FAIR       9   1  72 CALM      30.58R
PRESTON        FAIR      12   5  74 CALM      30.59R
OWATONNA       FAIR       7   0  72 CALM      30.59R
FARIBAULT      FAIR       9   1  72 W3        30.59S
$$

...ELSEWHERE IN MINNESOTA...


CITY           SKY/WX    TMP DP  RH WIND       PRES   REMARKS
MINNEAPOLIS    FAIR       8   1  73 SW6       30.60R WCI  -2
INTNL FALLS    FAIR       3  -2  79 W7        30.36S WCI  -9
DULUTH         FAIR       8  -2  63 W13       30.41R WCI  -8
RED WING       FAIR      10  -2  56 W3        30.61R
REDWOOD FALLS  SUNNY      3  -4  72 S10       30.60R WCI -12
MANKATO        FAIR       9   0  67 W7        30.62R WCI  -2
WORTHINGTON    SUNNY      8  -1  66 S8        30.59R WCI  -4
FAIRMONT       CLOUDY     9   0  67 W8        30.62R WCI  -3
$$

...SOUTHWEST WISCONSIN...


CITY           SKY/WX    TMP DP  RH WIND       PRES   REMARKS
LA CROSSE      FAIR      15   5  64 N3        30.63R
PRAIRIE DU CHI FAIR      16   3  56 NW7       30.65R WCI   6
BOSCOBEL       FAIR      18   6  59 NW8       30.64R WCI   8
LONE ROCK      FAIR      19  11  70 NW8       30.62R WCI   9
PLATTEVILLE    FAIR      18  12  78 NW13      30.60R WCI   5
FORT MC COY    FAIR      14   7  73 NW3       30.62R
CAMP DOUGLAS   PTSUNNY   16   7  67 NW7       30.59R WCI   6
MAUSTON-NEW LI FAIR      15   6  67 NW9       30.59R WCI   3
VIROQUA        FAIR      13   8  80 N3        30.57R
WIS DELLS      FAIR      16   6  65 N8        30.58R WCI   5
$$

...ELSEWHERE IN WISCONSIN...


CITY           SKY/WX    TMP DP  RH WIND       PRES   REMARKS
MILWAUKEE      CLOUDY    26  14  60 NW13      30.54R WCI  15
MADISON        PTSUNNY   20  12  71 N12       30.57R WCI   8
GREEN BAY      FAIR      20  10  65 NW10      30.55R WCI   9
EAU CLAIRE     FAIR       8   2  76 SW6       30.59R WCI  -2
BLACK RVR FLS  FAIR      16   7  67 CALM      30.61R
MEDFORD        FAIR       8   2  76 W3        30.51R
WAUSAU         FAIR      10   3  73 W9        30.52R WCI  -3
WIS RAPIDS     FAIR      14   4  64 NW7       30.58R WCI   4
MARSHFIELD     FAIR       9   3  77 W6        30.53R WCI  -1
RICE LAKE      FAIR       7   2  82 W3        30.57R
$$

...NORTHEAST IOWA...


CITY           SKY/WX    TMP DP  RH WIND       PRES   REMARKS
WATERLOO       FAIR      15   6  67 N6        30.64R WCI   6
DUBUQUE        FAIR      17   8  67 N13       30.58R WCI   4
DECORAH        FAIR      12   7  79 VRB5      30.59R WCI   4
MASON CITY     CLOUDY    13   5  70 W3        30.64R
CHARLES CITY   FAIR      14   9  79 CALM      30.63R
OELWEIN        FAIR      14   7  73 N9        30.63R WCI   2
$$

...ELSEWHERE IN IOWA...


CITY           SKY/WX    TMP DP  RH WIND       PRES   REMARKS
DES MOINES     CLOUDY    16   7  67 N8        30.65R WCI   5
IOWA CITY      FAIR      21   8  57 N10       30.64R WCI  10
FORT DODGE     CLOUDY    17   6  62 W5        30.64R WCI  10
MARSHALLTOWN   PTSUNNY   16   8  71 N7        30.64R WCI   6
CEDAR RAPIDS   FAIR      18   7  62 N12       30.61R WCI   5
$$

...NORTHERN ILLINOIS...


CITY           SKY/WX    TMP DP  RH WIND       PRES   REMARKS
CHICAGO-OHARE  CLOUDY    29  18  63 N9        30.53R WCI  20
CHICAGO-MIDWAY CLOUDY    30  21  69 N10       30.54R WCI  21
MOLINE         FAIR      25  15  66 N10       30.60R WCI  15
ROCKFORD       CLOUDY    26  18  71 N10       30.59R WCI  16
PEORIA         CLOUDY    25  21  85 N8        30.56R WCI  16
$$

NOTE: "FAIR" INDICATES FEW OR NO CLOUDS BELOW 12,000 FEET WITH NO
SIGNIFICANT WEATHER AND/OR OBSTRUCTIONS TO VISIBILITY. WIND
SPEEDS ARE IN MILES-PER-HOUR.




USA.gov is the U.S. government's official web portal to all federal, state and local government web resources and services.